When you browse on this site, cookies collect data to enhance your experience and personalize the content and advertising you see.
Visit our Privacy Policy to learn more. By continuing to use the site, you agree to this use of cookies and data.
  • In Hungary
  • List of Countries
  • For 7 days
  • Water Temperature
  • Weather Map
  • News
  • Weather Widgets
  • user-avatar
    Login

    Hourly Weather Gruzka

    Today, 9 December, Monday

    Time Temperature Precipitation Wind Pressure Humidity
    00:00 +3°C° 0.3 mm 7 mps 735 mmHg 81%
    01:00 +3°C° 0.3 mm 7 mps 735 mmHg 82%
    02:00 +3°C° 0 mm 7 mps 735 mmHg 80%
    03:00 +3°C° 0.4 mm 6 mps 735 mmHg 83%
    04:00 +3°C° 0.4 mm 6 mps 735 mmHg 86%
    05:00 +3°C° 0.4 mm 6 mps 734 mmHg 90%
    06:00 +3°C° 0.1 mm 6 mps 735 mmHg 88%
    07:00 +3°C° 0.1 mm 6 mps 735 mmHg 87%
    08:00 +3°C° 0 mm 5 mps 735 mmHg 84%
    09:00 +3°C° 0.1 mm 5 mps 735 mmHg 84%
    10:00 +3°C° 0.1 mm 6 mps 735 mmHg 84%
    11:00 +3°C° 0.1 mm 6 mps 736 mmHg 84%
    12:00 +4°C° 0.1 mm 6 mps 736 mmHg 83%
    13:00 +6°C° 0.1 mm 5 mps 736 mmHg 83%
    14:00 +6°C° 0.1 mm 5 mps 736 mmHg 82%
    15:00 +6°C° 0 mm 5 mps 737 mmHg 84%
    16:00 +5°C° 0 mm 4 mps 737 mmHg 86%
    17:00 +5°C° 0 mm 4 mps 737 mmHg 88%
    18:00 +4°C° 0 mm 3 mps 737 mmHg 89%
    19:00 +4°C° 0 mm 3 mps 738 mmHg 89%
    20:00 +3°C° 0 mm 3 mps 738 mmHg 90%
    21:00 +3°C° 0 mm 3 mps 738 mmHg 91%
    22:00 +3°C° 0 mm 3 mps 738 mmHg 91%
    23:00 +2°C° 0 mm 3 mps 738 mmHg 91%

    Tomorrow, 10 December, Tuesday

    Time Temperature Precipitation Wind Pressure Humidity
    00:00 +2°C° 0 mm 3 mps 738 mmHg 91%
    01:00 +2°C° 0 mm 3 mps 739 mmHg 91%
    02:00 +2°C° 0 mm 3 mps 739 mmHg 91%
    03:00 +2°C° 0 mm 3 mps 739 mmHg 91%
    04:00 +1°C° 0 mm 3 mps 739 mmHg 91%
    05:00 +1°C° 0 mm 3 mps 739 mmHg 92%
    06:00 +1°C° 0 mm 3 mps 740 mmHg 92%
    07:00 +1°C° 0 mm 3 mps 740 mmHg 92%
    08:00 0°C° 0 mm 4 mps 741 mmHg 92%
    09:00 0°C° 0 mm 4 mps 741 mmHg 91%
    10:00 +1°C° 0 mm 4 mps 742 mmHg 90%
    11:00 +1°C° 0 mm 5 mps 742 mmHg 88%
    12:00 +1°C° 0 mm 5 mps 742 mmHg 81%
    13:00 +2°C° 0 mm 5 mps 743 mmHg 75%
    14:00 +2°C° 0 mm 6 mps 743 mmHg 68%
    15:00 +1°C° 0 mm 6 mps 744 mmHg 72%
    16:00 -1°C° 0 mm 6 mps 744 mmHg 76%
    17:00 -1°C° 0 mm 6 mps 744 mmHg 80%
    18:00 -1°C° 0.1 mm 6 mps 745 mmHg 83%
    19:00 -1°C° 0.1 mm 6 mps 746 mmHg 86%
    20:00 -1°C° 0.1 mm 6 mps 746 mmHg 89%
    21:00 -1°C° 0 mm 6 mps 747 mmHg 88%
    22:00 -1°C° 0 mm 6 mps 747 mmHg 87%
    23:00 -1°C° 0 mm 6 mps 747 mmHg 86%

    Day after tomorrow, 11 December, Wednesday

    Time Temperature Precipitation Wind Pressure Humidity
    00:00 -1°C° 0.1 mm 5 mps 747 mmHg 88%
    01:00 -1°C° 0.1 mm 4 mps 748 mmHg 90%
    02:00 0°C° 0.1 mm 3 mps 748 mmHg 92%
    03:00 -1°C° 0 mm 3 mps 748 mmHg 91%
    04:00 -1°C° 0 mm 3 mps 748 mmHg 89%
    05:00 -1°C° 0 mm 3 mps 748 mmHg 88%
    06:00 -2°C° 0 mm 2 mps 748 mmHg 89%
    07:00 -2°C° 0 mm 2 mps 748 mmHg 89%
    08:00 -3°C° 0 mm 2 mps 748 mmHg 89%
    09:00 0°C° 0 mm 1 mps 748 mmHg 84%
    10:00 0°C° 0 mm 1 mps 748 mmHg 79%
    11:00 +1°C° 0 mm 1 mps 748 mmHg 74%
    12:00 +1°C° 0 mm 1 mps 748 mmHg 72%
    13:00 +2°C° 0 mm 1 mps 748 mmHg 70%
    14:00 +2°C° 0 mm 1 mps 747 mmHg 68%
    15:00 +1°C° 0 mm 1 mps 747 mmHg 73%
    16:00 -1°C° 0 mm 2 mps 746 mmHg 78%
    17:00 -2°C° 0 mm 2 mps 746 mmHg 83%
    18:00 -2°C° 0 mm 2 mps 746 mmHg 86%
    19:00 -2°C° 0 mm 2 mps 746 mmHg 89%
    20:00 -2°C° 0 mm 3 mps 746 mmHg 91%
    21:00 -2°C° 0 mm 3 mps 746 mmHg 90%
    22:00 -2°C° 0 mm 3 mps 745 mmHg 89%
    23:00 -3°C° 0 mm 4 mps 745 mmHg 88%

    12 December, Thursday

    Time Temperature Precipitation Wind Pressure Humidity
    00:00 -3°C° 0 mm 4 mps 745 mmHg 86%
    01:00 -2°C° 0 mm 4 mps 744 mmHg 83%
    02:00 -2°C° 0 mm 4 mps 744 mmHg 81%
    03:00 -2°C° 0 mm 5 mps 743 mmHg 84%
    04:00 -2°C° 0 mm 5 mps 742 mmHg 87%
    05:00 -2°C° 0 mm 5 mps 742 mmHg 91%
    06:00 -1°C° 0 mm 5 mps 742 mmHg 92%
    07:00 -1°C° 0 mm 5 mps 741 mmHg 93%
    08:00 -1°C° 0 mm 4 mps 741 mmHg 94%
    09:00 0°C° 0 mm 5 mps 741 mmHg 92%
    10:00 0°C° 0 mm 5 mps 741 mmHg 89%
    11:00 0°C° 0 mm 5 mps 741 mmHg 87%
    12:00 0°C° 0 mm 5 mps 741 mmHg 82%
    13:00 0°C° 0 mm 5 mps 740 mmHg 76%
    14:00 0°C° 0 mm 5 mps 740 mmHg 71%
    15:00 -1°C° 0 mm 4 mps 740 mmHg 73%
    16:00 -1°C° 0 mm 3 mps 740 mmHg 74%
    17:00 -2°C° 0 mm 3 mps 740 mmHg 76%
    18:00 -2°C° 0 mm 3 mps 740 mmHg 75%
    19:00 -2°C° 0 mm 3 mps 740 mmHg 74%
    20:00 -2°C° 0 mm 2 mps 740 mmHg 73%
    21:00 -2°C° 0 mm 3 mps 739 mmHg 75%
    22:00 -2°C° 0 mm 3 mps 739 mmHg 76%
    23:00 -1°C° 0 mm 3 mps 739 mmHg 78%

    13 December, Friday

    Time Temperature Precipitation Wind Pressure Humidity
    00:00 -1°C° 0 mm 3 mps 739 mmHg 78%
    01:00 -2°C° 0 mm 3 mps 738 mmHg 78%
    02:00 -3°C° 0 mm 4 mps 738 mmHg 78%
    03:00 -3°C° 0 mm 4 mps 737 mmHg 78%
    04:00 -3°C° 0 mm 4 mps 736 mmHg 79%
    05:00 -3°C° 0 mm 4 mps 736 mmHg 79%
    06:00 -2°C° 0 mm 5 mps 735 mmHg 84%
    07:00 -2°C° 0 mm 5 mps 735 mmHg 89%
    08:00 -2°C° 0 mm 6 mps 734 mmHg 93%
    09:00 -2°C° 0 mm 6 mps 733 mmHg 91%
    10:00 -1°C° 0 mm 7 mps 733 mmHg 88%
    11:00 -1°C° 0 mm 7 mps 732 mmHg 85%
    12:00 -1°C° 0 mm 7 mps 731 mmHg 83%
    13:00 0°C° 0 mm 7 mps 730 mmHg 82%
    14:00 0°C° 0 mm 7 mps 729 mmHg 80%
    15:00 0°C° 0 mm 7 mps 729 mmHg 76%
    16:00 0°C° 0 mm 7 mps 729 mmHg 72%
    17:00 0°C° 0 mm 7 mps 728 mmHg 69%
    18:00 0°C° 0 mm 7 mps 729 mmHg 70%
    19:00 -1°C° 0 mm 7 mps 729 mmHg 70%
    20:00 -1°C° 0 mm 7 mps 729 mmHg 71%
    21:00 -1°C° 0 mm 7 mps 729 mmHg 74%
    22:00 -1°C° 0 mm 7 mps 728 mmHg 76%
    23:00 -1°C° 0 mm 6 mps 728 mmHg 79%

    14 December, Saturday

    Time Temperature Precipitation Wind Pressure Humidity
    00:00 -1°C° 0 mm 6 mps 728 mmHg 84%
    01:00 -1°C° 0 mm 6 mps 728 mmHg 90%
    02:00 -2°C° 0 mm 6 mps 729 mmHg 96%
    03:00 0°C° 0 mm 5 mps 729 mmHg 95%
    04:00 0°C° 0 mm 5 mps 729 mmHg 94%
    05:00 0°C° 0 mm 4 mps 729 mmHg 94%
    06:00 0°C° 0 mm 4 mps 729 mmHg 93%
    07:00 0°C° 0 mm 4 mps 729 mmHg 93%
    08:00 0°C° 0 mm 5 mps 729 mmHg 92%
    09:00 0°C° 0 mm 5 mps 730 mmHg 91%
    10:00 +1°C° 0 mm 5 mps 730 mmHg 90%
    11:00 +1°C° 0 mm 5 mps 730 mmHg 89%
    12:00 +1°C° 0.3 mm 4 mps 730 mmHg 92%
    13:00 +2°C° 0.3 mm 3 mps 730 mmHg 94%
    14:00 +2°C° 0.3 mm 3 mps 730 mmHg 97%
    15:00 +1°C° 0.3 mm 3 mps 730 mmHg 97%
    16:00 +1°C° 0.3 mm 3 mps 730 mmHg 97%
    17:00 +1°C° 0.3 mm 3 mps 730 mmHg 97%
    18:00 0°C° 0.3 mm 4 mps 731 mmHg 96%
    19:00 0°C° 0.3 mm 4 mps 731 mmHg 96%
    20:00 0°C° 0.3 mm 4 mps 731 mmHg 96%
    21:00 0°C° 0 mm 4 mps 732 mmHg 94%
    22:00 0°C° 0 mm 5 mps 732 mmHg 92%
    23:00 0°C° 0 mm 5 mps 732 mmHg 90%
    Show more